Weather home | Your neighborhood | Marine | Radar | Hurricane | Almanac

Daily weather history


Statistical History for Friday, February 15, 2013

Tampa Knight Airport, FL


  Actual Average (KTPA) Record (KTPA)
Temperature
Mean Temperature -  
Max Temperature 71 °F 84 °F (1990)
Min Temperature 53 °F 31 °F (1943)
Degree Days
Heating Degree Days    
Growing Degree Days 10 (Base - )  
Moisture
Dew Point   
Average Humidity    
Maximum Humidity    
Minimum Humidity    
Precipitation
Precipitation - - ()
Wind
Wind Speed   
Max Wind Speed   
Max Gust Speed   
Visibility   
Events   
Averages and records for this station are not official NWS values.
Key: T is trace of precipitation, MM is missing value
Source: NWS Daily Summary
Seasonal Weather Averages
Time(EST)TemperatureDew PointHumidity Sea Level Pressure Visibility Wind DirectionWind SpeedGust SpeedPrecipitationEventsConditions
12:15 AM 59.0 °F 55.4 °F 88% 29.99 in 5.0 miles ENE 3.5 mph - N/A   Overcast
12:35 AM 59.0 °F 57.2 °F 94% 30.00 in 5.0 miles NNE 4.6 mph - N/A Rain Light Rain
12:55 AM 59.0 °F 55.4 °F 88% 30.02 in 5.0 miles North 3.5 mph - N/A   Light Drizzle
1:15 AM 59.0 °F 55.4 °F 88% 30.03 in 5.0 miles NNW 3.5 mph - 0.01 in   Drizzle
1:35 AM 57.2 °F 55.4 °F 94% 30.04 in 7.0 miles NNW 5.8 mph - 0.03 in Rain Light Rain
1:55 AM 57.2 °F 55.4 °F 94% 30.04 in 7.0 miles NNE 5.8 mph - 0.03 in   Overcast
2:15 AM 57.2 °F 55.4 °F 94% 30.02 in 7.0 miles NNE 8.1 mph - N/A   Overcast
2:35 AM 57.2 °F 55.4 °F 94% 30.03 in 7.0 miles North 4.6 mph - N/A   Light Drizzle
2:55 AM 55.4 °F 53.6 °F 94% 30.01 in 7.0 miles NNE 8.1 mph - N/A Rain Light Rain
3:15 AM 55.4 °F 53.6 °F 94% 30.00 in 7.0 miles NE 9.2 mph - 0.01 in Rain Light Rain
3:35 AM 55.4 °F 53.6 °F 94% 30.01 in 7.0 miles NNE 4.6 mph - 0.01 in Rain Light Rain
3:55 AM 55.4 °F 53.6 °F 94% 30.02 in 7.0 miles NNE 3.5 mph - 0.01 in   Overcast
4:15 AM 55.4 °F 53.6 °F 94% 30.03 in 7.0 miles NNE 4.6 mph - N/A   Overcast
4:35 AM 55.4 °F 53.6 °F 94% 30.04 in 10.0 miles NE 6.9 mph - N/A   Overcast
4:55 AM 55.4 °F 53.6 °F 94% 30.03 in 10.0 miles NE 6.9 mph - N/A   Overcast
5:15 AM 55.4 °F 53.6 °F 94% 30.02 in 7.0 miles NE 8.1 mph - N/A   Overcast
5:35 AM 55.4 °F 53.6 °F 94% 30.02 in 10.0 miles NNE 8.1 mph - N/A   Overcast
5:55 AM 55.4 °F 53.6 °F 94% 30.03 in 10.0 miles NNE 8.1 mph - N/A   Overcast
6:15 AM 55.4 °F 53.6 °F 94% 30.03 in 7.0 miles NE 8.1 mph - N/A   Overcast
6:35 AM 55.4 °F 53.6 °F 94% 30.04 in 10.0 miles ENE 8.1 mph - N/A   Overcast
6:55 AM 55.4 °F 53.6 °F 94% 30.06 in 10.0 miles NE 6.9 mph - N/A   Overcast
7:15 AM 55.4 °F 53.6 °F 94% 30.06 in 10.0 miles Calm Calm - N/A   Overcast
7:35 AM 55.4 °F 53.6 °F 94% 30.05 in 10.0 miles NE 8.1 mph - N/A   Overcast
7:55 AM 55.4 °F 53.6 °F 94% 30.06 in 7.0 miles NE 8.1 mph - N/A   Overcast
8:15 AM 55.4 °F 51.8 °F 88% 30.08 in 10.0 miles NNE 4.6 mph - N/A   Overcast
8:35 AM 55.4 °F 51.8 °F 88% 30.07 in 5.0 miles NE 10.4 mph - N/A   Overcast
8:55 AM 55.4 °F 51.8 °F 88% 30.09 in 5.0 miles NNE 5.8 mph - N/A   Overcast
9:15 AM 53.6 °F 51.8 °F 94% 30.09 in 4.0 miles NE 4.6 mph - N/A   Overcast
9:35 AM 53.6 °F 51.8 °F 94% 30.09 in 4.0 miles North 5.8 mph - N/A   Overcast
9:55 AM 53.6 °F 51.8 °F 94% 30.09 in 3.0 miles NNE 6.9 mph - N/A   Overcast
10:15 AM 53.6 °F 51.8 °F 94% 30.10 in 4.0 miles NNE 8.1 mph - N/A   Overcast
10:35 AM 55.4 °F 51.8 °F 88% 30.10 in 10.0 miles North 5.8 mph - N/A   Overcast
10:55 AM 55.4 °F 51.8 °F 88% 30.10 in 10.0 miles NE 6.9 mph - N/A   Mostly Cloudy
11:15 AM 55.4 °F 51.8 °F 88% 30.10 in 10.0 miles NNE 3.5 mph - N/A   Overcast
11:35 AM 57.2 °F 51.8 °F 82% 30.10 in 10.0 miles NE 4.6 mph - N/A   Mostly Cloudy
11:55 AM 59.0 °F 51.8 °F 77% 30.08 in 10.0 miles NE 4.6 mph - N/A   Mostly Cloudy
12:15 PM 59.0 °F 51.8 °F 77% 30.09 in 10.0 miles NE 4.6 mph - N/A   Mostly Cloudy
12:55 PM 60.8 °F 53.6 °F 77% 30.06 in 10.0 miles NE 4.6 mph - N/A   Scattered Clouds
1:15 PM 62.6 °F 53.6 °F 72% 30.05 in 10.0 miles NE 4.6 mph - N/A   Scattered Clouds
1:35 PM 62.6 °F 53.6 °F 72% 30.04 in 10.0 miles SE 3.5 mph - N/A   Scattered Clouds
2:15 PM 64.4 °F 53.6 °F 68% 30.01 in 10.0 miles Calm Calm - N/A   Scattered Clouds
2:35 PM 62.6 °F 53.6 °F 72% 30.01 in 10.0 miles Calm Calm - N/A   Scattered Clouds
2:55 PM 64.4 °F 53.6 °F 68% 30.00 in 10.0 miles North - - N/A   Mostly Cloudy
3:15 PM 62.6 °F 53.6 °F 72% 30.00 in 10.0 miles WSW 3.5 mph - N/A   Mostly Cloudy
3:35 PM 64.4 °F 53.6 °F 68% 30.00 in 10.0 miles WNW 3.5 mph - N/A   Mostly Cloudy
3:55 PM 64.4 °F 51.8 °F 64% 30.00 in 10.0 miles Calm Calm - N/A   Scattered Clouds
4:15 PM 64.4 °F 46.4 °F 52% 30.00 in 10.0 miles WSW 5.8 mph - N/A   Scattered Clouds
4:35 PM 66.2 °F 35.6 °F 32% 29.99 in 10.0 miles West 4.6 mph - N/A   Clear
4:55 PM 66.2 °F 32.0 °F 28% 29.98 in 10.0 miles WNW 3.5 mph - N/A   Scattered Clouds
5:15 PM 66.2 °F 30.2 °F 26% 29.99 in 10.0 miles WNW 3.5 mph - N/A   Scattered Clouds
5:35 PM 64.4 °F 30.2 °F 28% 29.98 in 10.0 miles Calm Calm - N/A   Clear
5:55 PM 64.4 °F 30.2 °F 28% 29.98 in 10.0 miles Calm Calm - N/A   Clear
6:15 PM 62.6 °F 41.0 °F 45% 29.98 in 10.0 miles Calm Calm - N/A   Clear
6:35 PM 60.8 °F 50.0 °F 68% 29.98 in 10.0 miles Calm Calm - N/A   Scattered Clouds
6:55 PM 60.8 °F 51.8 °F 72% 29.99 in 10.0 miles NW 4.6 mph - N/A   Mostly Cloudy
7:15 PM 60.8 °F 51.8 °F 72% 29.98 in 10.0 miles NNW 3.5 mph - N/A   Mostly Cloudy
7:35 PM 60.8 °F 51.8 °F 72% 29.98 in 10.0 miles North 4.6 mph - N/A   Scattered Clouds
7:55 PM 59.0 °F 50.0 °F 72% 29.99 in 10.0 miles NNW 4.6 mph - N/A   Mostly Cloudy
8:15 PM 59.0 °F 50.0 °F 72% 29.99 in 10.0 miles NNW 5.8 mph - N/A   Overcast
8:35 PM 59.0 °F 50.0 °F 72% 30.00 in 10.0 miles North 4.6 mph - N/A   Overcast
8:55 PM 59.0 °F 50.0 °F 72% 30.01 in 10.0 miles North 4.6 mph - N/A   Overcast
9:15 PM 59.0 °F 48.2 °F 67% 30.01 in 10.0 miles North 3.5 mph - N/A   Overcast
9:35 PM 59.0 °F 48.2 °F 67% 30.01 in 10.0 miles North 3.5 mph - N/A   Overcast
9:55 PM 59.0 °F 48.2 °F 67% 30.01 in 10.0 miles NNW 3.5 mph - N/A   Overcast
10:15 PM 59.0 °F 48.2 °F 67% 30.02 in 10.0 miles North 4.6 mph - N/A   Overcast
10:35 PM 57.2 °F 48.2 °F 72% 30.01 in 10.0 miles North 3.5 mph - N/A   Mostly Cloudy
10:55 PM 59.0 °F 48.2 °F 67% 30.01 in 10.0 miles North 4.6 mph - N/A   Mostly Cloudy
11:15 PM 59.0 °F 48.2 °F 67% 30.01 in 10.0 miles Calm Calm - N/A   Scattered Clouds
11:35 PM 57.2 °F 48.2 °F 72% 30.01 in 10.0 miles Calm Calm - N/A   Clear
11:55 PM 57.2 °F 48.2 °F 72% 30.00 in 10.0 miles Calm Calm - N/A   Clear
ADVERTISEMENT
Enter city or zip code to search weather conditions:


  • 490 First Avenue South
  • St. Petersburg, FL 33701
  • 727-893-8111